Location: Unspecified
(41.5000°N, 0.0000°E)
Time: 09:33:38
(UTC+00:00)

Vanguard 2 - Pass Details

Date: 28 June 2019
Orbit: 553 x 2938 km, 32.9° (Epoch: 23 July)

Event Time Altitude Azimuth Distance (km) Brightness Sun altitude
Rises 07:31:07 0° 244° (WSW) 2,778 9.9 31.3°
Reaches altitude 10° 07:33:18 10° 233° (SW) 1,979 9.3 31.7°
Maximum altitude 07:37:14 31° 169° (S) 1,272 9.0 32.4°
Drops below altitude 10° 07:42:38 10° 109° (ESE) 2,751 11.6 33.4°
Sets 07:46:14 0° 100° (E) 4,088 12.2 34.1°
